Location: Lanoux
(43.1180°N, 1.4255°E)
Time: 21:40:13
(UTC+00:00)

Cosmos 2369 - Visible Passes

Search period start: 16 March 2026 00:00
Search period end: 26 March 2026 00:00
Orbit: 840 x 853 km, 71.0° (Epoch: 16 March)

Date Brightness Start Highest point End Pass type
(mag) Time Alt. Az. Time Alt. Az. Time Alt. Az.
21 Mar 6.5 22:55:25 11° NNE 22:55:25 11° NNE 22:55:35 10° NNE visible
22 Mar 6.4 22:41:22 12° NNE 22:41:22 12° NNE 22:41:50 10° NNE visible
23 Mar 6.2 22:27:14 14° N 22:27:14 14° N 22:28:07 10° NNE visible
24 Mar 5.9 22:12:56 18° N 22:12:56 18° N 22:14:22 10° NNE visible
25 Mar 6.3 05:13:36 10° N 05:17:24 18° NE 05:21:12 10° E visible
25 Mar 5.6 21:58:24 23° N 21:58:24 23° N 22:00:38 10° NNE visible
